FW7595 Weather Reports


time (UTC)temp
F
wind
direction
speed
knots
gust
knots
rain 1hr
in
rain 24hr
in
rain mn
in
humidity
%
barometer
mb
20260503231555 69 271 3.5 7.8 0.00 0.00 0.00 52 1010.5
20260503230053 69 269 3.5 6.1 0.00 0.00 0.00 54 1010.6
20260503224552 69 280 0.9 3.5 0.00 0.00 0.00 55 1010.6
20260503223050 68 263 0.9 5.2 0.00 0.00 0.00 60 1010.9
20260503221553 67 273 0.0 3.5 0.00 0.00 0.00 61 1010.9
20260503220049 66 291 0.9 6.1 0.00 0.00 0.00 62 1011.1
20260503214548 66 257 0.9 5.2 0.00 0.00 0.00 63 1011.1
20260503213052 66 259 0.9 8.7 0.00 0.00 0.00 65 1011.2
20260503211547 67 273 0.9 5.2 0.00 0.00 0.00 65 1011.3
20260503210047 67 292 0.9 3.5 0.00 0.00 0.00 65 1011.3
20260503204549 67 177 0.9 4.3 0.00 0.00 0.00 65 1011.3
20260503203046 67 247 0.9 3.5 0.00 0.00 0.00 65 1011.6
20260503201546 67 267 0.9 2.6 0.00 0.00 0.00 66 1011.7
20260503200047 67 277 1.7 6.1 0.00 0.00 0.00 64 1011.8
20260503194549 68 281 0.9 4.3 0.00 0.00 0.00 63 1012.0
20260503193044 68 281 1.7 2.6 0.00 0.00 0.00 63 1012.3
20260503191539 65 279 0.9 2.6 0.00 0.00 0.00 70 1012.3
20260503190043 63 184 0.9 6.1 0.00 0.00 0.00 73 1012.5
20260503184529 61 290 0.9 3.5 0.00 0.00 0.00 75 1012.6
20260503183028 60 265 0.0 2.6 0.00 0.00 0.00 78 1012.7
20260503181528 60 292 0.0 3.5 0.00 0.00 0.00 79 1012.8
20260503180027 61 292 0.0 1.7 0.00 0.00 0.00 79 1012.7
20260503174528 61 259 0.9 2.6 0.00 0.00 0.00 77 1012.7
20260503173025 61 259 0.9 3.5 0.00 0.00 0.00 76 1012.4
20260503171523 61 131 0.0 2.6 0.00 0.00 0.00 77 1012.4
20260503081545 58 265 0.9 3.5 0.00 0.00 0.00 87 1011.3
20260503071540 58 186 0.9 2.6 0.00 0.00 0.00 86 1011.2
20260503054532 59 272 0.0 3.5 0.00 0.00 0.00 83 1010.7
20260503053026 59 278 0.9 4.3 0.00 0.00 0.00 82 1010.8
20260503051524 59 290 1.7 4.3 0.00 0.00 0.00 82 1010.8
20260503050025 59 275 2.6 5.2 0.00 0.00 0.00 82 1010.8
20260503044527 60 288 0.9 4.3 0.00 0.00 0.00 81 1010.7
20260503043024 60 276 1.7 5.2 0.00 0.00 0.00 80 1010.7
20260503041524 60 277 1.7 6.1 0.00 0.00 0.00 79 1010.3
20260503040024 61 275 0.9 3.5 0.00 0.00 0.00 78 1010.0
20260503034523 61 269 1.7 6.1 0.00 0.00 0.00 77 1009.7
20260503033027 62 272 0.9 5.2 0.00 0.00 0.00 75 1009.4
20260503031522 62 272 0.9 4.3 0.00 0.00 0.00 75 1009.3
20260503030021 63 273 1.7 7.0 0.00 0.00 0.00 74 1009.0
20260503024622 64 277 0.9 6.1 0.00 0.00 0.00 72 1008.8
20260503023021 66 265 0.9 3.5 0.00 0.00 0.00 68 1008.6
20260503021519 68 253 0.0 4.3 0.00 0.00 0.00 65 1008.3
20260503020019 70 227 0.9 3.5 0.00 0.00 0.00 62 1008.2
20260503014518 71 294 0.9 3.5 0.00 0.00 0.00 61 1008.0
20260503013021 73 269 1.7 5.2 0.00 0.00 0.00 58 1008.0
20260503011518 75 273 0.9 3.5 0.00 0.00 0.00 55 1008.0
20260503010017 75 282 0.9 4.3 0.00 0.00 0.00 55 1008.0
20260503004515 75 281 0.9 6.1 0.00 0.00 0.00 56 1008.1
20260503003035 75 291 0.9 7.0 0.00 0.00 0.00 57 1008.3
20260503001522 75 271 3.5 7.0 0.00 0.00 0.00 57 1008.3
20260503000016 75 278 1.7 7.0 0.00 0.00 0.00 57 1008.3
20260502234515 75 292 0.9 8.7 0.00 0.00 0.00 57 1008.2
20260502233020 75 286 2.6 8.7 0.00 0.00 0.00 58 1008.2